Regional Weather Roundup
Issued by NWS Wilmington, NC

Home | Current Version | Previous Version | Text Only | Print | Product List | Glossary On
Versions: 1 2 3 4 5 6 7 8 9 10 11 12 13 14 15 16 17 18 19 20 21 22 23 24 25 26 27 28 29 30 31 32 33 34 35 36 37 38 39 40 41 42 43 44 45 46 47 48 49 50
000
ASUS42 KILM 092313
RWRILM
RWRILM
REGIONAL HOURLY WEATHER ROUNDUP
NATIONAL WEATHER SERVICE WILMINGTON NC
600 PM EST TUE FEB 09 2016

NOTE: "FAIR" INDICATES FEW OR NO CLOUDS BELOW 12,000 FEET WITH NO
SIGNIFICANT WEATHER AND/OR OBSTRUCTIONS TO VISIBILITY.

...............WFO WILMINGTON COUNTY WARNING AREA...............

......COASTAL NC AND SC COUNTIES......

CITY           SKY/WX    TMP DP  RH WIND       PRES   REMARKS
WILMINGTON     CLOUDY    43  25  49 W21G31    29.77R
N MYRTLE BEACH CLOUDY    42  26  53 W10       29.80R
MYRTLE BEACH   CLOUDY    43  23  45 W18G24    29.83R

......INLAND NC AND SC COUNTIES.......

CITY           SKY/WX    TMP DP  RH WIND       PRES   REMARKS
LUMBERTON      CLOUDY    41  22  46 W15G24    29.77R
ELIZABETHTOWN  CLOUDY    41  25  53 SW12      29.77R
WHITEVILLE     MOCLDY    41  23  50 W8        29.79R
FLORENCE       CLOUDY    40  23  50 W14G21    29.81R WCI  32
DARLINGTON     MOCLDY    39  19  45 SW13G21   29.81R WCI  32
KINGSTREE      CLOUDY    39  21  48 W18G24    29.84R WCI  30
HARTSVILLE     CLOUDY    37  21  52 W10G18    29.80R WCI  30
BENNETTSVILLE  CLOUDY    43  25  49 SW7       29.79R
CONWAY         CLOUDY    41  27  56 W10G16    29.82R
GEORGETOWN     CLOUDY    41  27  56 W15G23    29.84R
MARION         CLOUDY    41  23  48 W12G24    29.81R

....................REST OF NORTH CAROLINA......................

.........EASTERN NC.........

CITY           SKY/WX    TMP DP  RH WIND       PRES   REMARKS
CAPE HATTERAS  CLEAR     45  31  58 W14G23    29.67R
JACKSONVILLE   CLOUDY    43  23  45 SW13G18   29.74R
MOREHEAD CITY  MOCLDY    44  27  51 W15       29.72R
KENANSVILLE    CLOUDY    41  23  49 W12G17    29.74R
NEW BERN       CLOUDY    43  24  47 W15G23    29.72R
ELIZABETH CITY CLOUDY    41  33  73 SW13      29.66R

.........CENTRAL NC.........

CITY           SKY/WX    TMP DP  RH WIND       PRES   REMARKS
RALEIGH DURHAM CLOUDY    37  21  52 NW9G17    29.73R WCI  30
ROCKY MOUNT    CLOUDY    40  24  53 W10G24    29.71R WCI  33
ROANOKE RAPIDS NOT AVBL
FAYETTEVILLE   CLOUDY    41  21  44 W12       29.75R
HOFFMAN        MOCLDY    39  20  46 W8G17     29.75R WCI  33

.........WESTERN NC.........

CITY           SKY/WX    TMP DP  RH WIND       PRES   REMARKS
CHARLOTTE      MOCLDY    35   9  33 NW9G18    29.79R WCI  28
GREENSBORO     CLOUDY    31   9  39 NW14G23   29.74R WCI  21
HICKORY        NOT AVBL
BOONE          NOT AVBL
ASHEVILLE      NOT AVBL

.....................REST OF SOUTH CAROLINA.....................

.........EASTERN SC.........

CITY           SKY/WX    TMP DP  RH WIND       PRES   REMARKS
CHARLESTON     MOCLDY    42  20  41 W16G25    29.87R
BEAUFORT MCAS  CLOUDY    43  22  43 W8        29.88R
HILTON HEAD    PTCLDY    45  27  49 W9        29.89R

.........CENTRAL SC.........

CITY           SKY/WX    TMP DP  RH WIND       PRES   REMARKS
COLUMBIA       CLOUDY    39  23  52 W22G32    29.86R WCI  29
ORANGEBURG     CLOUDY    40  20  44 W13       29.86R WCI  32
SUMTER SHAW    CLOUDY    39  23  54 W14G23    29.81R WCI  30

.........WESTERN SC.........

CITY           SKY/WX    TMP DP  RH WIND       PRES   REMARKS
GREENVILLE     NOT AVBL
ROCK HILL      CLOUDY    35  13  40 NW9       29.79R WCI  28
ANDERSON       CLOUDY    35  18  49 W17G25    29.84R WCI  25
CLEMSON        NOT AVBL
GREENWOOD      CLOUDY    35  26  69 SW9       29.86R WCI  28


...................COASTAL AND OFFSHORE REPORTS..................

................LOCAL PIERS AND NC RESERVE................


STATION/POSITION TIME  SKY/WX   TEMP    WIND        PRES    VSBY
                                AIR SEA DIR/SP/G
                 (UTC)          (F)     (DEG/KT/KT) (MB)    (MI)
JOHNY MRCER PIER 2200            45 53  250/ 16/ 22 1005.3R
NC RESRV MASNBRO NOT AVBL
OCEAN CREST PIER NOT AVBL
SPRINGMAID  PIER 2200            43 50  240/ 14/ 21 1008.0R


................COASTAL AND OFFSHORE BUOYS................


STATION/POSITION TIME  SKY/WX   TEMP    WIND        PRES    VSBY
                                AIR SEA DIR/SP/G
                 (UTC)          (F)     (DEG/KT/KT) (MB)    (MI)
DIMNDSHOAL 41025 2250            50 74  260/ 23/ 31 1004.2R
WVE H/P(F/S)= 10/15 SWL H/P/D(F/S/D)=  8/110/15

CAPE LOOKOUT     NOT AVBL
ONSLOW BAY 41036 NOT AVBL
ONSLOW BAY 41064 2208            48 59              1005.2R
ONSLOW BAY 41159 2225               59                N/A
WVE H/P(F/S)= 10/ 8 SWL H/P/D(F/S/D)=  3/160/11

5SE WRITBC 41038 2208            46 52  270/ 19/ 25 1006.6R
MASNBO INL 41110 2206               52                N/A
WVE H/P(F/S)=  4/14 SWL H/P/D(F/S/D)=  2/120/14

WILM HARBR 41108 2226               53                N/A
WVE H/P(F/S)=  7/ 6 SWL H/P/D(F/S/D)=  2/120/14

27SE WRITB 41037 NOT AVBL
FRYING PAN 41013 2200            47 53  260/ 23/ 29 1007.3R
SUNST NRSH 41024 NOT AVBL
CAPRS NRSH 41029 2208            45     260/ 21/ 29 1009.7R
EDISTO     41004 2250            47 65  270/ 29/ 37 1009.7R
WVE H/P(F/S)=  9/ 8 SWL H/P/D(F/S/D)=  2/13



..........OFFSHORE BUOYS BEYOND 100 NM OFFSHORE...........
.....IN A TRIANGLE---HAT TO BERMUDA TO BAHAMAS TO HAT.....


STATION/POSITION TIME  SKY/WX   TEMP    WIND        PRES    VSBY
                                AIR SEA DIR/SP/G
                 (UTC)          (F)     (DEG/KT/KT) (MB)    (MI)
150E HAT   41001 2300            58 71  250/ 29/ 45 1003.6R
W BERMUDA  41048 2250            67 69  240/ 29/ 35 1008.4R
WVE H/P(F/S)= 19/10

ATLANTIC S 41049 2250            76 76  200/ 17/ 21 1019.0R
WVE H/P(F/S)= 11/11 SWL H/P/D(F/S/D)= 10/300/11

E BAHAMAS  41046 2250            78 79  190/  6/ 10 1018.5R
WVE H/P(F/S)=  9/12 SWL H/P/D(F/S/D)=  8/340/12

NE BAHAMAS 41047 2250            71 75  270/ 19/ 25 1014.7R
WVE H/P(F/S)= 11/ 8 SWL H/P/D(F/S/D)=  7/340/13

120E CANVRL41010 2220            61 72              1013.4F

END



USA.gov is the U.S. government's official web portal to all federal, state and local government web resources and services.